Location: Black Skies Observatory
(44.7549°N, 79.7179°W)
Time: 13:32:26
(UTC-05:00)

Envisat - Pass Details

Date: 06 November 2020
Orbit: 764 x 766 km, 98.1° (Epoch: 01 December)

Event Time Altitude Azimuth Distance (km) Brightness Sun altitude
Rises 05:48:06 0° 19° (NNE) 3,241 6.4 -13.8°
Reaches altitude 10° 05:50:32 10° 26° (NNE) 2,310 5.7 -13.4°
Maximum altitude 05:55:22 43° 98° (E) 1,068 4.4 -12.6°
Drops below altitude 10° 06:00:10 10° 170° (S) 2,293 5.8 -11.7°
Sets 06:02:34 0° 176° (S) 3,214 6.4 -11.3°
